| time (UTC) | temp F | wind direction | speed MPH | gust MPH | rain 1hr in | rain 24hr in | rain mn in | humidity % | barometer mb |
| 20260903160007 | 65 | 236 | 0.0 | 0.0 | 0.00 | 0.00 | 0.00 | 25 | 1020.5 |
| 20260903155504 | 64 | 178 | 0.0 | 2.0 | 0.00 | 0.00 | 0.00 | 25 | 1020.6 |
| 20260903155004 | 64 | 190 | 0.0 | 2.0 | 0.00 | 0.00 | 0.00 | 25 | 1020.7 |
| 20260903154504 | 64 | 217 | 0.0 | 0.0 | 0.00 | 0.00 | 0.00 | 26 | 1020.7 |
| 20260903154004 | 63 | 205 | 0.0 | 2.0 | 0.00 | 0.00 | 0.00 | 26 | 1020.9 |
| 20260903153502 | 62 | 215 | 0.0 | 6.0 | 0.00 | 0.00 | 0.00 | 26 | 1020.9 |
| 20260903153002 | 62 | 220 | 1.0 | 7.0 | 0.00 | 0.00 | 0.00 | 26 | 1021.0 |
| 20260903152506 | 63 | 271 | 4.0 | 7.0 | 0.00 | 0.00 | 0.00 | 26 | 1021.0 |
| 20260903152002 | 63 | 271 | 1.0 | 5.0 | 0.00 | 0.00 | 0.00 | 25 | 1021.0 |
| 20260903151103 | 62 | 232 | 0.0 | 9.0 | 0.00 | 0.00 | 0.00 | 26 | 1021.0 |
| 20260903150559 | 62 | 245 | 1.0 | 8.0 | 0.00 | 0.00 | 0.00 | 26 | 1020.9 |
| 20260903150116 | 61 | 200 | 1.0 | 7.0 | 0.00 | 0.00 | 0.00 | 26 | 1020.8 |
| 20260903145555 | 61 | 254 | 0.0 | 6.0 | 0.00 | 0.00 | 0.00 | 28 | 1020.9 |
| 20260903145054 | 60 | 215 | 0.0 | 4.0 | 0.00 | 0.00 | 0.00 | 27 | 1020.8 |
| 20260903144554 | 59 | 238 | 0.0 | 4.0 | 0.00 | 0.00 | 0.00 | 29 | 1020.9 |
| 20260903144052 | 57 | 209 | 0.0 | 2.0 | 0.00 | 0.00 | 0.00 | 32 | 1020.8 |
| 20260903143552 | 56 | 192 | 0.0 | 0.0 | 0.00 | 0.00 | 0.00 | 36 | 1020.8 |
| 20260903143052 | 55 | 166 | 0.0 | 0.0 | 0.00 | 0.00 | 0.00 | 38 | 1020.8 |
| 20260903142552 | 54 | 166 | 0.0 | 0.0 | 0.00 | 0.00 | 0.00 | 40 | 1020.8 |
| 20260903142056 | 53 | 201 | 0.0 | 0.0 | 0.00 | 0.00 | 0.00 | 41 | 1020.8 |
| 20260903141557 | 53 | 218 | 0.0 | 0.0 | 0.00 | 0.00 | 0.00 | 42 | 1020.8 |
| 20260903141051 | 53 | 205 | 0.0 | 0.0 | 0.00 | 0.00 | 0.00 | 41 | 1020.8 |
| 20260903140551 | 54 | 205 | 0.0 | 1.0 | 0.00 | 0.00 | 0.00 | 41 | 1020.8 |
| 20260903140051 | 54 | 200 | 0.0 | 1.0 | 0.00 | 0.00 | 0.00 | 41 | 1020.8 |
| 20260903135550 | 53 | 209 | 0.0 | 0.0 | 0.00 | 0.00 | 0.00 | 42 | 1020.8 |
| 20260903135050 | 53 | 209 | 0.0 | 4.0 | 0.00 | 0.00 | 0.00 | 42 | 1020.7 |
| 20260903134550 | 53 | 220 | 0.0 | 4.0 | 0.00 | 0.00 | 0.00 | 42 | 1020.6 |
| 20260903134050 | 53 | 73 | 0.0 | 0.0 | 0.00 | 0.00 | 0.00 | 42 | 1020.7 |
| 20260903133549 | 54 | 73 | 0.0 | 0.0 | 0.00 | 0.00 | 0.00 | 42 | 1020.6 |
| 20260903133049 | 54 | 217 | 0.0 | 0.0 | 0.00 | 0.00 | 0.00 | 41 | 1020.5 |
| 20260903132549 | 54 | 216 | 0.0 | 0.0 | 0.00 | 0.00 | 0.00 | 40 | 1020.5 |
| 20260903132048 | 55 | 211 | 0.0 | 0.0 | 0.00 | 0.00 | 0.00 | 40 | 1020.6 |
| 20260903131548 | 55 | 202 | 0.0 | 0.0 | 0.00 | 0.00 | 0.00 | 40 | 1020.6 |
| 20260903131048 | 54 | 190 | 0.0 | 0.0 | 0.00 | 0.00 | 0.00 | 41 | 1020.4 |
| 20260903130549 | 54 | 114 | 0.0 | 0.0 | 0.00 | 0.00 | 0.00 | 41 | 1020.4 |
| 20260903130048 | 54 | 203 | 0.0 | 0.0 | 0.00 | 0.00 | 0.00 | 41 | 1020.4 |
| 20260903125547 | 54 | 203 | 0.0 | 0.0 | 0.00 | 0.00 | 0.00 | 41 | 1020.4 |
| 20260903125047 | 54 | 203 | 0.0 | 0.0 | 0.00 | 0.00 | 0.00 | 40 | 1020.4 |
| 20260903124559 | 54 | 185 | 0.0 | 0.0 | 0.00 | 0.00 | 0.00 | 40 | 1020.4 |
| 20260903124046 | 54 | 185 | 0.0 | 0.0 | 0.00 | 0.00 | 0.00 | 40 | 1020.4 |
| 20260903123546 | 54 | 185 | 0.0 | 1.0 | 0.00 | 0.00 | 0.00 | 39 | 1020.3 |
| 20260903123046 | 54 | 97 | 0.0 | 1.0 | 0.00 | 0.00 | 0.00 | 40 | 1020.3 |
| 20260903122547 | 54 | 198 | 0.0 | 0.0 | 0.00 | 0.00 | 0.00 | 40 | 1020.4 |
| 20260903122046 | 53 | 198 | 0.0 | 0.0 | 0.00 | 0.00 | 0.00 | 41 | 1020.4 |
| 20260903121548 | 53 | 223 | 0.0 | 0.0 | 0.00 | 0.00 | 0.00 | 40 | 1020.4 |
| 20260903121043 | 53 | 223 | 0.0 | 0.0 | 0.00 | 0.00 | 0.00 | 40 | 1020.5 |
| 20260903120545 | 54 | 224 | 0.0 | 0.0 | 0.00 | 0.00 | 0.00 | 40 | 1020.5 |
| 20260903120144 | 53 | 224 | 0.0 | 0.0 | 0.00 | 0.00 | 0.00 | 40 | 1020.5 |
| 20260903115543 | 54 | 224 | 0.0 | 0.0 | 0.00 | 0.00 | 0.00 | 39 | 1020.6 |
| 20260903115046 | 54 | 224 | 0.0 | 0.0 | 0.00 | 0.00 | 0.00 | 39 | 1020.6 |
| 20260903114556 | 54 | 224 | 0.0 | 0.0 | 0.00 | 0.00 | 0.00 | 39 | 1020.5 |
| 20260903114041 | 54 | 225 | 0.0 | 0.0 | 0.00 | 0.00 | 0.00 | 39 | 1020.6 |
| 20260903113542 | 54 | 225 | 0.0 | 0.0 | 0.00 | 0.00 | 0.00 | 39 | 1020.6 |
| 20260903113040 | 54 | 225 | 0.0 | 1.0 | 0.00 | 0.00 | 0.00 | 38 | 1020.6 |
| 20260903112539 | 55 | 173 | 0.0 | 3.0 | 0.00 | 0.00 | 0.00 | 37 | 1020.6 |
| 20260903112039 | 55 | 144 | 0.0 | 3.0 | 0.00 | 0.00 | 0.00 | 37 | 1020.7 |
| 20260903111540 | 56 | 165 | 0.0 | 2.0 | 0.00 | 0.00 | 0.00 | 37 | 1020.8 |
| 20260903111038 | 57 | 355 | 0.0 | 11.0 | 0.00 | 0.00 | 0.00 | 36 | 1020.8 |
| 20260903110538 | 57 | 135 | 3.0 | 11.0 | 0.00 | 0.00 | 0.00 | 36 | 1020.8 |
| 20260903110043 | 56 | 160 | 0.0 | 9.0 | 0.00 | 0.00 | 0.00 | 36 | 1020.8 |
| 20260903105540 | 58 | 74 | 0.0 | 9.0 | 0.00 | 0.00 | 0.00 | 34 | 1020.8 |
| 20260903105037 | 59 | 184 | 4.0 | 9.0 | 0.00 | 0.00 | 0.00 | 35 | 1020.8 |
| 20260903104538 | 59 | 158 | 1.0 | 9.0 | 0.00 | 0.00 | 0.00 | 35 | 1020.9 |
| 20260903104036 | 58 | 205 | 4.0 | 9.0 | 0.00 | 0.00 | 0.00 | 37 | 1020.8 |
| 20260903103535 | 56 | 173 | 2.0 | 9.0 | 0.00 | 0.00 | 0.00 | 39 | 1020.8 |
| 20260903103044 | 55 | 38 | 0.0 | 4.0 | 0.00 | 0.00 | 0.00 | 38 | 1020.8 |
| 20260903102533 | 55 | 101 | 0.0 | 5.0 | 0.00 | 0.00 | 0.00 | 37 | 1020.9 |
| 20260903102035 | 56 | 47 | 0.0 | 5.0 | 0.00 | 0.00 | 0.00 | 36 | 1020.8 |
| 20260903101541 | 57 | 35 | 0.0 | 3.0 | 0.00 | 0.00 | 0.00 | 34 | 1020.8 |
| 20260903101033 | 58 | 121 | 0.0 | 2.0 | 0.00 | 0.00 | 0.00 | 34 | 1020.8 |
| 20260903100533 | 58 | 180 | 0.0 | 6.0 | 0.00 | 0.00 | 0.00 | 34 | 1020.7 |
| 20260903100037 | 58 | 209 | 2.0 | 8.0 | 0.00 | 0.00 | 0.00 | 34 | 1020.6 |
| 20260903095531 | 58 | 182 | 4.0 | 9.0 | 0.00 | 0.00 | 0.00 | 34 | 1020.6 |
| 20260903095030 | 58 | 239 | 5.0 | 9.0 | 0.00 | 0.00 | 0.00 | 34 | 1020.5 |
| 20260903094531 | 58 | 188 | 3.0 | 7.0 | 0.00 | 0.00 | 0.00 | 34 | 1020.5 |
| 20260903094028 | 58 | 215 | 3.0 | 7.0 | 0.00 | 0.00 | 0.00 | 34 | 1020.7 |
| 20260903093534 | 58 | 188 | 3.0 | 7.0 | 0.00 | 0.00 | 0.00 | 33 | 1020.8 |
| 20260903093055 | 58 | 227 | 3.0 | 8.0 | 0.00 | 0.00 | 0.00 | 34 | 1020.8 |
| 20260903092529 | 58 | 192 | 5.0 | 8.0 | 0.00 | 0.00 | 0.00 | 34 | 1020.9 |
| 20260903092026 | 57 | 235 | 4.0 | 8.0 | 0.00 | 0.00 | 0.00 | 33 | 1021.0 |
| 20260903091525 | 57 | 223 | 1.0 | 5.0 | 0.00 | 0.00 | 0.00 | 33 | 1021.1 |
| 20260903091024 | 57 | 202 | 1.0 | 6.0 | 0.00 | 0.00 | 0.00 | 33 | 1021.2 |
| 20260903090524 | 57 | 205 | 1.0 | 6.0 | 0.00 | 0.00 | 0.00 | 33 | 1021.3 |
| 20260903090024 | 57 | 214 | 0.0 | 4.0 | 0.00 | 0.00 | 0.00 | 32 | 1021.3 |
| 20260903085522 | 58 | 227 | 0.0 | 4.0 | 0.00 | 0.00 | 0.00 | 32 | 1021.2 |
| 20260903085021 | 58 | 232 | 0.0 | 4.0 | 0.00 | 0.00 | 0.00 | 32 | 1021.3 |
| 20260903084521 | 58 | 223 | 0.0 | 4.0 | 0.00 | 0.00 | 0.00 | 32 | 1021.3 |
| 20260903084021 | 58 | 203 | 0.0 | 4.0 | 0.00 | 0.00 | 0.00 | 32 | 1021.3 |
| 20260903083521 | 58 | 216 | 0.0 | 4.0 | 0.00 | 0.00 | 0.00 | 31 | 1021.4 |
| 20260903083021 | 59 | 200 | 0.0 | 4.0 | 0.00 | 0.00 | 0.00 | 31 | 1021.3 |
| 20260903082522 | 58 | 210 | 1.0 | 4.0 | 0.00 | 0.00 | 0.00 | 32 | 1021.3 |
| 20260903082020 | 58 | 208 | 0.0 | 3.0 | 0.00 | 0.00 | 0.00 | 33 | 1021.4 |
| 20260903081529 | 57 | 167 | 0.0 | 1.0 | 0.00 | 0.00 | 0.00 | 34 | 1021.5 |
| 20260903081025 | 57 | 183 | 0.0 | 0.0 | 0.00 | 0.00 | 0.00 | 36 | 1021.6 |
| 20260903080524 | 56 | 182 | 0.0 | 0.0 | 0.00 | 0.00 | 0.00 | 37 | 1021.6 |
| 20260903080019 | 57 | 22 | 0.0 | 0.0 | 0.00 | 0.00 | 0.00 | 37 | 1021.6 |
| 20260903075518 | 57 | 22 | 0.0 | 0.0 | 0.00 | 0.00 | 0.00 | 37 | 1021.6 |
| 20260903075021 | 57 | 92 | 0.0 | 2.0 | 0.00 | 0.00 | 0.00 | 37 | 1021.6 |
| 20260903074517 | 58 | 28 | 0.0 | 4.0 | 0.00 | 0.00 | 0.00 | 36 | 1021.5 |
| 20260903074015 | 58 | 5 | 0.0 | 4.0 | 0.00 | 0.00 | 0.00 | 35 | 1021.5 |
| 20260903073514 | 58 | 9 | 1.0 | 4.0 | 0.00 | 0.00 | 0.00 | 34 | 1021.4 |
| 20260903073014 | 58 | 277 | 0.0 | 3.0 | 0.00 | 0.00 | 0.00 | 33 | 1021.3 |
| 20260903072513 | 58 | 211 | 0.0 | 1.0 | 0.00 | 0.00 | 0.00 | 33 | 1021.3 |
| 20260903072013 | 58 | 196 | 0.0 | 0.0 | 0.00 | 0.00 | 0.00 | 35 | 1021.3 |
| 20260903071015 | 58 | 209 | 1.0 | 6.0 | 0.00 | 0.00 | 0.00 | 34 | 1021.4 |
| 20260903070517 | 58 | 34 | 2.0 | 6.0 | 0.00 | 0.00 | 0.00 | 34 | 1021.3 |
| 20260903070010 | 59 | 18 | 0.0 | 0.0 | 0.00 | 0.00 | 0.00 | 34 | 1021.4 |
| 20260903065510 | 59 | 65 | 0.0 | 4.0 | 0.00 | 0.00 | 0.00 | 32 | 1021.2 |
| 20260903065010 | 60 | 147 | 0.0 | 6.0 | 0.00 | 0.00 | 0.00 | 30 | 1021.1 |
| 20260903064510 | 60 | 248 | 1.0 | 8.0 | 0.00 | 0.00 | 0.00 | 30 | 1020.9 |
| 20260903064009 | 60 | 251 | 2.0 | 7.0 | 0.00 | 0.00 | 0.00 | 29 | 1020.9 |
| 20260903063512 | 61 | 244 | 0.0 | 10.0 | 0.00 | 0.00 | 0.00 | 28 | 1020.8 |
| 20260903063011 | 61 | 202 | 3.0 | 10.0 | 0.00 | 0.00 | 0.00 | 28 | 1020.8 |
| 20260903062510 | 61 | 220 | 4.0 | 8.0 | 0.00 | 0.00 | 0.00 | 29 | 1020.8 |
| 20260903062010 | 60 | 194 | 1.0 | 5.0 | 0.00 | 0.00 | 0.00 | 30 | 1020.8 |
| 20260903061508 | 60 | 174 | 0.0 | 4.0 | 0.00 | 0.00 | 0.00 | 31 | 1020.8 |
| 20260903061010 | 61 | 203 | 0.0 | 8.0 | 0.00 | 0.00 | 0.00 | 30 | 1020.8 |
| 20260903060508 | 61 | 216 | 2.0 | 8.0 | 0.00 | 0.00 | 0.00 | 30 | 1020.8 |
| 20260903060014 | 61 | 188 | 3.0 | 10.0 | 0.00 | 0.00 | 0.00 | 32 | 1020.8 |
| 20260903055510 | 61 | 192 | 5.0 | 13.0 | 0.00 | 0.00 | 0.00 | 32 | 1020.8 |
| 20260903055008 | 61 | 230 | 6.0 | 13.0 | 0.00 | 0.00 | 0.00 | 32 | 1020.9 |
| 20260903054508 | 61 | 198 | 5.0 | 10.0 | 0.00 | 0.00 | 0.00 | 32 | 1021.0 |
| 20260903054008 | 61 | 188 | 5.0 | 10.0 | 0.00 | 0.00 | 0.00 | 32 | 1021.1 |
| 20260903053506 | 61 | 186 | 5.0 | 11.0 | 0.00 | 0.00 | 0.00 | 32 | 1021.2 |
| 20260903053007 | 61 | 234 | 4.0 | 8.0 | 0.00 | 0.00 | 0.00 | 33 | 1021.3 |
| 20260903052506 | 61 | 214 | 4.0 | 7.0 | 0.00 | 0.00 | 0.00 | 32 | 1021.4 |
| 20260903052006 | 61 | 230 | 3.0 | 7.0 | 0.00 | 0.00 | 0.00 | 32 | 1021.6 |
| 20260903051506 | 61 | 195 | 2.0 | 8.0 | 0.00 | 0.00 | 0.00 | 32 | 1021.6 |
| 20260903051005 | 61 | 192 | 0.0 | 5.0 | 0.00 | 0.00 | 0.00 | 32 | 1021.6 |
| 20260903050507 | 61 | 215 | 0.0 | 5.0 | 0.00 | 0.00 | 0.00 | 31 | 1021.6 |
| 20260903050006 | 62 | 206 | 0.0 | 9.0 | 0.00 | 0.00 | 0.00 | 31 | 1021.6 |
| 20260903045505 | 62 | 221 | 2.0 | 9.0 | 0.00 | 0.00 | 0.00 | 31 | 1021.6 |
| 20260903045005 | 62 | 223 | 1.0 | 8.0 | 0.00 | 0.00 | 0.00 | 31 | 1021.6 |
| 20260903044508 | 62 | 191 | 3.0 | 9.0 | 0.00 | 0.00 | 0.00 | 30 | 1021.6 |
| 20260903044005 | 62 | 205 | 2.0 | 10.0 | 0.00 | 0.00 | 0.00 | 30 | 1021.7 |
| 20260903043505 | 62 | 240 | 0.0 | 11.0 | 0.00 | 0.00 | 0.00 | 30 | 1021.7 |
| 20260903043004 | 62 | 234 | 2.0 | 14.0 | 0.00 | 0.00 | 0.00 | 30 | 1021.6 |
| 20260903042504 | 62 | 253 | 2.0 | 14.0 | 0.00 | 0.00 | 0.00 | 30 | 1021.5 |
| 20260903042007 | 62 | 211 | 0.0 | 6.0 | 0.00 | 0.00 | 0.00 | 30 | 1021.5 |
| 20260903041510 | 62 | 252 | 0.0 | 6.0 | 0.00 | 0.00 | 0.00 | 29 | 1021.5 |
| 20260903041004 | 62 | 216 | 0.0 | 10.0 | 0.00 | 0.00 | 0.00 | 29 | 1021.5 |
| 20260903040504 | 62 | 261 | 1.0 | 10.0 | 0.00 | 0.00 | 0.00 | 29 | 1021.5 |
| 20260903040004 | 62 | 236 | 0.0 | 3.0 | 0.00 | 0.00 | 0.00 | 28 | 1021.5 |
| 20260903035502 | 63 | 240 | 0.0 | 3.0 | 0.00 | 0.00 | 0.00 | 28 | 1021.5 |
| 20260903035003 | 63 | 217 | 0.0 | 8.0 | 0.00 | 0.00 | 0.00 | 27 | 1021.4 |
| 20260903034503 | 63 | 261 | 0.0 | 8.0 | 0.00 | 0.00 | 0.00 | 28 | 1021.4 |
| 20260903034003 | 64 | 248 | 0.0 | 8.0 | 0.00 | 0.00 | 0.00 | 28 | 1021.3 |
| 20260903033505 | 64 | 273 | 0.0 | 9.0 | 0.00 | 0.00 | 0.00 | 27 | 1021.2 |
| 20260903033002 | 64 | 245 | 5.0 | 10.0 | 0.00 | 0.00 | 0.00 | 27 | 1021.2 |
| 20260903032502 | 64 | 243 | 4.0 | 10.0 | 0.00 | 0.00 | 0.00 | 26 | 1021.2 |
| 20260903032001 | 65 | 261 | 3.0 | 10.0 | 0.00 | 0.00 | 0.00 | 25 | 1021.0 |
| 20260903031501 | 65 | 244 | 4.0 | 10.0 | 0.00 | 0.00 | 0.00 | 25 | 1020.9 |
| 20260903031002 | 65 | 209 | 6.0 | 11.0 | 0.00 | 0.00 | 0.00 | 25 | 1020.9 |
| 20260903030502 | 65 | 221 | 5.0 | 11.0 | 0.00 | 0.00 | 0.00 | 26 | 1020.9 |
| 20260903030002 | 65 | 196 | 3.0 | 12.0 | 0.00 | 0.00 | 0.00 | 26 | 1020.8 |
| 20260903025600 | 66 | 185 | 4.0 | 12.0 | 0.00 | 0.00 | 0.00 | 25 | 1020.8 |
| 20260903025102 | 66 | 236 | 1.0 | 10.0 | 0.00 | 0.00 | 0.00 | 24 | 1020.6 |
| 20260903024600 | 66 | 245 | 5.0 | 14.0 | 0.00 | 0.00 | 0.00 | 24 | 1020.5 |
| 20260903024100 | 66 | 230 | 7.0 | 14.0 | 0.00 | 0.00 | 0.00 | 24 | 1020.4 |
| 20260903023600 | 66 | 259 | 5.0 | 14.0 | 0.00 | 0.00 | 0.00 | 24 | 1020.4 |
| 20260903023101 | 66 | 200 | 4.0 | 14.0 | 0.00 | 0.00 | 0.00 | 24 | 1020.3 |
| 20260903022600 | 66 | 215 | 7.0 | 15.0 | 0.00 | 0.00 | 0.00 | 24 | 1020.3 |
| 20260903022100 | 67 | 235 | 6.0 | 15.0 | 0.00 | 0.00 | 0.00 | 24 | 1020.3 |
| 20260903021559 | 67 | 263 | 7.0 | 13.0 | 0.00 | 0.00 | 0.00 | 25 | 1020.3 |
| 20260903021059 | 67 | 257 | 9.0 | 13.0 | 0.00 | 0.00 | 0.00 | 24 | 1020.3 |
| 20260903020558 | 67 | 233 | 9.0 | 15.0 | 0.00 | 0.00 | 0.00 | 23 | 1020.3 |
| 20260903015558 | 68 | 176 | 10.0 | 14.0 | 0.00 | 0.00 | 0.00 | 21 | 1020.0 |
| 20260903015058 | 68 | 215 | 6.0 | 17.0 | 0.00 | 0.00 | 0.00 | 21 | 1020.0 |
| 20260903014623 | 69 | 252 | 9.0 | 17.0 | 0.00 | 0.00 | 0.00 | 20 | 1020.0 |
| 20260903014101 | 69 | 227 | 7.0 | 14.0 | 0.00 | 0.00 | 0.00 | 19 | 1020.0 |
| 20260903013557 | 70 | 190 | 9.0 | 13.0 | 0.00 | 0.00 | 0.00 | 19 | 1019.9 |
| 20260903013107 | 70 | 223 | 5.0 | 11.0 | 0.00 | 0.00 | 0.00 | 19 | 1020.0 |
| 20260903012556 | 70 | 190 | 8.0 | 15.0 | 0.00 | 0.00 | 0.00 | 19 | 1020.0 |
| 20260903012056 | 70 | 181 | 6.0 | 18.0 | 0.00 | 0.00 | 0.00 | 18 | 1020.0 |
| 20260903011556 | 70 | 209 | 10.0 | 19.0 | 0.00 | 0.00 | 0.00 | 18 | 1020.0 |
| 20260903011055 | 70 | 209 | 10.0 | 19.0 | 0.00 | 0.00 | 0.00 | 17 | 1020.1 |
| 20260903010556 | 71 | 223 | 9.0 | 15.0 | 0.00 | 0.00 | 0.00 | 17 | 1020.1 |
| 20260903010056 | 71 | 216 | 10.0 | 17.0 | 0.00 | 0.00 | 0.00 | 19 | 1020.1 |
| 20260903005555 | 71 | 203 | 8.0 | 15.0 | 0.00 | 0.00 | 0.00 | 18 | 1020.0 |
| 20260903005056 | 71 | 186 | 11.0 | 17.0 | 0.00 | 0.00 | 0.00 | 18 | 1020.0 |
| 20260903004559 | 72 | 197 | 10.0 | 17.0 | 0.00 | 0.00 | 0.00 | 17 | 1020.0 |
| 20260903004055 | 72 | 187 | 9.0 | 18.0 | 0.00 | 0.00 | 0.00 | 17 | 1020.0 |
| 20260903003555 | 71 | 242 | 8.0 | 20.0 | 0.00 | 0.00 | 0.00 | 17 | 1020.0 |
| 20260903003108 | 72 | 238 | 11.0 | 20.0 | 0.00 | 0.00 | 0.00 | 17 | 1020.1 |
| 20260903002555 | 72 | 232 | 9.0 | 19.0 | 0.00 | 0.00 | 0.00 | 16 | 1020.1 |
| 20260903002055 | 72 | 210 | 11.0 | 19.0 | 0.00 | 0.00 | 0.00 | 16 | 1020.1 |
| 20260903001554 | 72 | 246 | 10.0 | 17.0 | 0.00 | 0.00 | 0.00 | 16 | 1020.1 |
| 20260903001053 | 71 | 221 | 10.0 | 20.0 | 0.00 | 0.00 | 0.00 | 16 | 1020.0 |
| 20260903000553 | 71 | 194 | 11.0 | 20.0 | 0.00 | 0.00 | 0.00 | 17 | 1020.0 |
| 20260902235553 | 71 | 243 | 13.0 | 22.0 | 0.00 | 0.00 | 0.00 | 16 | 1020.0 |
| 20260902235055 | 72 | 234 | 10.0 | 22.0 | 0.00 | 0.00 | 0.00 | 16 | 1020.1 |
| 20260902234553 | 72 | 192 | 11.0 | 21.0 | 0.00 | 0.00 | 0.00 | 16 | 1020.0 |
| 20260902234056 | 73 | 193 | 11.0 | 19.0 | 0.00 | 0.00 | 0.00 | 17 | 1019.9 |
| 20260902233553 | 72 | 228 | 6.0 | 19.0 | 0.00 | 0.00 | 0.00 | 19 | 1019.8 |
| 20260902233052 | 72 | 190 | 8.0 | 17.0 | 0.00 | 0.00 | 0.00 | 19 | 1019.8 |
| 20260902232552 | 72 | 194 | 9.0 | 17.0 | 0.00 | 0.00 | 0.00 | 20 | 1019.9 |
| 20260902232051 | 72 | 245 | 9.0 | 21.0 | 0.00 | 0.00 | 0.00 | 19 | 1019.9 |
| 20260902231551 | 72 | 187 | 10.0 | 21.0 | 0.00 | 0.00 | 0.00 | 19 | 1020.0 |
| 20260902231051 | 73 | 198 | 10.0 | 20.0 | 0.00 | 0.00 | 0.00 | 19 | 1019.9 |
| 20260902230550 | 73 | 185 | 8.0 | 18.0 | 0.00 | 0.00 | 0.00 | 17 | 1019.9 |
| 20260902230054 | 74 | 240 | 6.0 | 24.0 | 0.00 | 0.00 | 0.00 | 17 | 1020.0 |
| 20260902225552 | 73 | 277 | 11.0 | 24.0 | 0.00 | 0.00 | 0.00 | 18 | 1020.0 |
| 20260902225048 | 73 | 181 | 5.0 | 15.0 | 0.00 | 0.00 | 0.00 | 18 | 1020.0 |
| 20260902224605 | 73 | 229 | 7.0 | 18.0 | 0.00 | 0.00 | 0.00 | 18 | 1020.1 |
| 20260902224046 | 72 | 198 | 10.0 | 22.0 | 0.00 | 0.00 | 0.00 | 20 | 1019.9 |
| 20260902223547 | 72 | 249 | 8.0 | 22.0 | 0.00 | 0.00 | 0.00 | 19 | 1020.1 |
| 20260902223047 | 72 | 196 | 10.0 | 16.0 | 0.00 | 0.00 | 0.00 | 20 | 1020.2 |
| 20260902222543 | 71 | 222 | 9.0 | 18.0 | 0.00 | 0.00 | 0.00 | 21 | 1020.2 |
| 20260902222043 | 70 | 182 | 12.0 | 20.0 | 0.00 | 0.00 | 0.00 | 21 | 1020.3 |
| 20260902221544 | 71 | 202 | 10.0 | 20.0 | 0.00 | 0.00 | 0.00 | 21 | 1020.3 |
| 20260902221043 | 71 | 233 | 9.0 | 23.0 | 0.00 | 0.00 | 0.00 | 22 | 1020.4 |
| 20260902220544 | 69 | 227 | 11.0 | 23.0 | 0.00 | 0.00 | 0.00 | 23 | 1020.5 |
| 20260902220043 | 69 | 203 | 12.0 | 20.0 | 0.00 | 0.00 | 0.00 | 22 | 1020.5 |
| 20260902215541 | 70 | 192 | 11.0 | 23.0 | 0.00 | 0.00 | 0.00 | 23 | 1020.6 |
| 20260902215045 | 70 | 186 | 8.0 | 22.0 | 0.00 | 0.00 | 0.00 | 23 | 1020.6 |
| 20260902214608 | 70 | 233 | 11.0 | 22.0 | 0.00 | 0.00 | 0.00 | 23 | 1020.6 |
| 20260902214042 | 70 | 207 | 11.0 | 20.0 | 0.00 | 0.00 | 0.00 | 23 | 1020.6 |
| 20260902213541 | 70 | 231 | 8.0 | 24.0 | 0.00 | 0.00 | 0.00 | 22 | 1020.7 |
| 20260902213042 | 70 | 219 | 8.0 | 21.0 | 0.00 | 0.00 | 0.00 | 22 | 1020.5 |
| 20260902212540 | 70 | 189 | 9.0 | 23.0 | 0.00 | 0.00 | 0.00 | 23 | 1020.7 |
| 20260902212041 | 71 | 216 | 12.0 | 23.0 | 0.00 | 0.00 | 0.00 | 23 | 1020.6 |
| 20260902211539 | 70 | 192 | 10.0 | 22.0 | 0.00 | 0.00 | 0.00 | 23 | 1020.6 |
| 20260902211038 | 69 | 202 | 11.0 | 18.0 | 0.00 | 0.00 | 0.00 | 24 | 1020.6 |
| 20260902210539 | 69 | 248 | 11.0 | 18.0 | 0.00 | 0.00 | 0.00 | 24 | 1020.7 |
| 20260902210041 | 69 | 245 | 10.0 | 17.0 | 0.00 | 0.00 | 0.00 | 25 | 1020.7 |
| 20260902205537 | 69 | 219 | 10.0 | 19.0 | 0.00 | 0.00 | 0.00 | 25 | 1020.7 |
| 20260902205036 | 69 | 238 | 5.0 | 12.0 | 0.00 | 0.00 | 0.00 | 26 | 1020.7 |
| 20260902204535 | 68 | 171 | 1.0 | 12.0 | 0.00 | 0.00 | 0.00 | 27 | 1020.8 |
| 20260902204034 | 68 | 189 | 5.0 | 12.0 | 0.00 | 0.00 | 0.00 | 27 | 1020.8 |
| 20260902203534 | 67 | 190 | 4.0 | 12.0 | 0.00 | 0.00 | 0.00 | 27 | 1020.8 |
| 20260902203035 | 68 | 183 | 6.0 | 12.0 | 0.00 | 0.00 | 0.00 | 27 | 1020.8 |
| 20260902202535 | 68 | 209 | 5.0 | 11.0 | 0.00 | 0.00 | 0.00 | 28 | 1020.9 |
| 20260902202033 | 68 | 197 | 4.0 | 11.0 | 0.00 | 0.00 | 0.00 | 28 | 1021.0 |
| 20260902201536 | 67 | 211 | 2.0 | 10.0 | 0.00 | 0.00 | 0.00 | 28 | 1021.0 |
| 20260902201031 | 66 | 188 | 1.0 | 5.0 | 0.00 | 0.00 | 0.00 | 27 | 1021.1 |
| 20260902200530 | 66 | 201 | 0.0 | 9.0 | 0.00 | 0.00 | 0.00 | 28 | 1021.1 |
| 20260902200030 | 66 | 211 | 1.0 | 9.0 | 0.00 | 0.00 | 0.00 | 28 | 1021.2 |
| 20260902195529 | 66 | 210 | 4.0 | 9.0 | 0.00 | 0.00 | 0.00 | 28 | 1021.2 |
| 20260902195030 | 66 | 246 | 1.0 | 8.0 | 0.00 | 0.00 | 0.00 | 27 | 1021.2 |
| 20260902194537 | 66 | 269 | 0.0 | 7.0 | 0.00 | 0.00 | 0.00 | 27 | 1021.3 |
| 20260902194027 | 65 | 274 | 2.0 | 10.0 | 0.00 | 0.00 | 0.00 | 28 | 1021.4 |
| 20260902193527 | 64 | 348 | 0.0 | 4.0 | 0.00 | 0.00 | 0.00 | 28 | 1021.5 |
| 20260902193025 | 64 | 227 | 0.0 | 3.0 | 0.00 | 0.00 | 0.00 | 29 | 1021.5 |
| 20260902192525 | 64 | 313 | 0.0 | 8.0 | 0.00 | 0.00 | 0.00 | 29 | 1021.4 |
| 20260902192027 | 64 | 196 | 3.0 | 8.0 | 0.00 | 0.00 | 0.00 | 29 | 1021.6 |
| 20260902191524 | 63 | 207 | 0.0 | 7.0 | 0.00 | 0.00 | 0.00 | 29 | 1021.5 |
| 20260902191024 | 64 | 210 | 1.0 | 7.0 | 0.00 | 0.00 | 0.00 | 29 | 1021.6 |
| 20260902190524 | 63 | 264 | 0.0 | 7.0 | 0.00 | 0.00 | 0.00 | 30 | 1021.6 |
| 20260902190024 | 63 | 286 | 0.0 | 9.0 | 0.00 | 0.00 | 0.00 | 30 | 1021.7 |
| 20260902185524 | 63 | 258 | 3.0 | 9.0 | 0.00 | 0.00 | 0.00 | 30 | 1021.7 |
| 20260902185028 | 63 | 226 | 0.0 | 8.0 | 0.00 | 0.00 | 0.00 | 30 | 1021.7 |
| 20260902184522 | 63 | 252 | 2.0 | 8.0 | 0.00 | 0.00 | 0.00 | 30 | 1021.8 |
| 20260902184022 | 62 | 296 | 0.0 | 9.0 | 0.00 | 0.00 | 0.00 | 30 | 1021.7 |
| 20260902183522 | 62 | 254 | 0.0 | 9.0 | 0.00 | 0.00 | 0.00 | 30 | 1021.8 |
| 20260902183022 | 63 | 344 | 0.0 | 8.0 | 0.00 | 0.00 | 0.00 | 29 | 1021.8 |
| 20260902182520 | 63 | 220 | 3.0 | 13.0 | 0.00 | 0.00 | 0.00 | 28 | 1021.7 |
| 20260902182021 | 63 | 188 | 7.0 | 14.0 | 0.00 | 0.00 | 0.00 | 28 | 1021.8 |
| 20260902181521 | 62 | 115 | 3.0 | 13.0 | 0.00 | 0.00 | 0.00 | 29 | 1021.8 |
| 20260902181020 | 61 | 177 | 4.0 | 9.0 | 0.00 | 0.00 | 0.00 | 30 | 1021.8 |
| 20260902180523 | 60 | 208 | 1.0 | 14.0 | 0.00 | 0.00 | 0.00 | 32 | 1021.7 |
| 20260902180020 | 61 | 246 | 4.0 | 14.0 | 0.00 | 0.00 | 0.00 | 31 | 1021.6 |
| 20260902175519 | 60 | 97 | 0.0 | 4.0 | 0.00 | 0.00 | 0.00 | 32 | 1021.7 |
| 20260902175018 | 61 | 5 | 0.0 | 1.0 | 0.00 | 0.00 | 0.00 | 32 | 1021.7 |
| 20260902174524 | 61 | 360 | 0.0 | 1.0 | 0.00 | 0.00 | 0.00 | 32 | 1021.7 |
| 20260902174017 | 60 | 355 | 0.0 | 1.0 | 0.00 | 0.00 | 0.00 | 32 | 1021.6 |
| 20260902173517 | 60 | 29 | 0.0 | 0.0 | 0.00 | 0.00 | 0.00 | 32 | 1021.6 |
| 20260902173016 | 60 | 28 | 0.0 | 0.0 | 0.00 | 0.00 | 0.00 | 33 | 1021.6 |
| 20260902172522 | 60 | 328 | 0.0 | 0.0 | 0.00 | 0.00 | 0.00 | 32 | 1021.6 |
| 20260902172017 | 60 | 331 | 0.0 | 0.0 | 0.00 | 0.00 | 0.00 | 33 | 1021.6 |
| 20260902171517 | 59 | 327 | 0.0 | 0.0 | 0.00 | 0.00 | 0.00 | 32 | 1021.7 |
| 20260902171016 | 59 | 327 | 0.0 | 0.0 | 0.00 | 0.00 | 0.00 | 33 | 1021.6 |
| 20260902170517 | 59 | 319 | 0.0 | 0.0 | 0.00 | 0.00 | 0.00 | 34 | 1021.6 |
| 20260902170015 | 59 | 323 | 0.0 | 0.0 | 0.00 | 0.00 | 0.00 | 34 | 1021.5 |
| 20260902165513 | 58 | 301 | 0.0 | 0.0 | 0.00 | 0.00 | 0.00 | 34 | 1021.4 |
| 20260902165012 | 58 | 306 | 0.0 | 1.0 | 0.00 | 0.00 | 0.00 | 34 | 1021.3 |
| 20260902164521 | 58 | 285 | 0.0 | 1.0 | 0.00 | 0.00 | 0.00 | 34 | 1021.3 |
| 20260902164010 | 58 | 311 | 0.0 | 0.0 | 0.00 | 0.00 | 0.00 | 34 | 1021.3 |
| 20260902163512 | 58 | 293 | 0.0 | 4.0 | 0.00 | 0.00 | 0.00 | 34 | 1021.2 |
| 20260902163010 | 58 | 327 | 0.0 | 4.0 | 0.00 | 0.00 | 0.00 | 34 | 1021.2 |
| 20260902162509 | 58 | 323 | 0.0 | 2.0 | 0.00 | 0.00 | 0.00 | 34 | 1021.1 |
| 20260902162009 | 58 | 338 | 0.0 | 2.0 | 0.00 | 0.00 | 0.00 | 34 | 1021.0 |
| 20260902161521 | 58 | 347 | 0.0 | 2.0 | 0.00 | 0.00 | 0.00 | 34 | 1021.0 |
| 20260902161009 | 58 | 346 | 0.0 | 0.0 | 0.00 | 0.00 | 0.00 | 34 | 1021.0 |
| 20260902160511 | 58 | 330 | 0.0 | 0.0 | 0.00 | 0.00 | 0.00 | 35 | 1021.2 |